This is the latest recevied weather packets stored in our database for station/object K6POO-1. If no packets are shown the sender has not sent any weather packets the latest 10 day(s).
| Time | Temp. | Humidity | Pressure | Rain* | Wind** | Luminosity | Snow |
|---|---|---|---|---|---|---|---|
| 1777680570 | 17.22° C | 68% | 1013 hPa | 0 mm | - | 319 W/m² | - |
| 1777680268 | 17.22° C | 68% | 1012.9 hPa | 0 mm | - | 348 W/m² | - |
| 1777679964 | 17.22° C | 67% | 1013 hPa | 0 mm | - | 375 W/m² | - |
| 1777679660 | 17.78° C | 65% | 1013.1 hPa | 0 mm | - | 386 W/m² | - |
| 1777679354 | 17.22° C | 66% | 1013.1 hPa | 0 mm | - | 440 W/m² | - |
| 1777679052 | 17.22° C | 68% | 1013.1 hPa | 0 mm | - | 463 W/m² | - |
| 1777678750 | 16.67° C | 70% | 1013 hPa | 0 mm | - | 479 W/m² | - |
| 1777678447 | 16.67° C | 71% | 1013.3 hPa | 0 mm | - | 509 W/m² | - |
| 1777678143 | 16.67° C | 70% | 1013.2 hPa | 0 mm | - | 469 W/m² | - |
| 1777677840 | 17.22° C | 69% | 1013.3 hPa | 0 mm | - | 553 W/m² | - |
| 1777677538 | 17.22° C | 68% | 1013.5 hPa | 0 mm | - | 578 W/m² | - |
| 1777677235 | 16.67° C | 70% | 1013.4 hPa | 0 mm | - | 605 W/m² | - |
| 1777676934 | 16.67° C | 69% | 1013.4 hPa | 0 mm | - | 545 W/m² | - |
| 1777676633 | 17.22° C | 68% | 1013.4 hPa | 0 mm | - | 642 W/m² | - |
| 1777676329 | 17.22° C | 70% | 1013.6 hPa | 0 mm | - | 662 W/m² | - |
| 1777676027 | 16.67° C | 71% | 1013.5 hPa | 0 mm | - | 679 W/m² | - |
| 1777675723 | 16.11° C | 72% | 1013.7 hPa | 0 mm | - | 716 W/m² | - |
| 1777675420 | 16.11° C | 72% | 1013.5 hPa | 0 mm | - | 696 W/m² | - |
| 1777675117 | 16.11° C | 72% | 1013.7 hPa | 0 mm | - | 647 W/m² | - |
| 1777674813 | 16.11° C | 73% | 1013.9 hPa | 0 mm | - | 660 W/m² | - |
| 1777674509 | 16.11° C | 73% | 1014 hPa | 0 mm | - | 690 W/m² | - |
| 1777674207 | 16.11° C | 73% | 1014.1 hPa | 0 mm | - | 760 W/m² | - |
| 1777673903 | 16.11° C | 73% | 1014.1 hPa | 0 mm | - | 718 W/m² | - |
| 1777673600 | 15.56° C | 74% | 1014.4 hPa | 0 mm | - | 647 W/m² | - |
| 1777673298 | 15.56° C | 76% | 1014.5 hPa | 0 mm | - | 716 W/m² | - |
* Rain latest hour (hover to see other rain measurements)
** Current wind speed in m/s (hover to see current wind gust speed)